Morgantown, WV

11:02 AM EDT on September 23, 2017 (GMT -0400)
Morgantown Municipal-Hart

Weather History for KMGW - January, 2004

Change the Weather History Date:

Sunday, January 25, 2004

  Actual Average Record
Temperature  
Mean Temperature 10 °F 32 °F  
Max Temperature 18 °F 39 °F 75 °F (1950)
Min Temperature 1 °F 24 °F -7 °F (1961)
Degree Days  
Heating Degree Days 56 34  
Month to date heating degree days 847  
Since 1 July heating degree days 2831  
Cooling Degree Days 0 0  
Month to date cooling degree days 0  
Year to date cooling degree days 0  
Moisture  
Dew Point 7 °F    
Average Humidity 75    
Maximum Humidity 88    
Minimum Humidity 41    
Precipitation  
Precipitation 0.07 in 0.09 in 1.10 in (1978)
Month to date precipitation 2.26  
Year to date precipitation 2.26  
Sea Level Pressure  
Sea Level Pressure 30.08 in    
Wind  
Wind Speed 5 mph (East)    
Max Wind Speed 14 mph    
Max Gust Speed 20 mph    
Visibility 6 miles    
Events Fog , Snow    
T = Trace of Precipitation, MM = Missing Value Source: NWS Daily Summary

Daily Weather History Graph

Daily Weather History Graph

Search for Another Location

Airport or City:

Trip Planner

Search our weather history database for the weather conditions in past years. The results will help you decide how hot, cold, wet, or windy it might be!

Date:

Astronomy

Jan. 25, 2004 Rise Set
Actual Time 7:33 AM EST 5:30 PM EST
Civil Twilight 7:04 AM EST 5:59 PM EST
Nautical Twilight 6:32 AM EST 6:32 PM EST
Astronomical Twilight 6:00 AM EST 7:04 PM EST
Moon 10:06 AM EST (1/25) 9:54 PM EST (1/25)
Length of Visible Light 10h 54m
Length of Day
9h 57m
Waxing Crescent, 17% of the Moon is Illuminated
Jan 25
Waxing Crescent
Jan 29
First Quarter
Feb 6
Full
Feb 13
Last Quarter
Feb 20
New

Hourly Weather History & Observations

Time (EST) Temp. Windchill Dew Point Humidity Pressure Visibility Wind Dir Wind Speed Gust Speed Precip Events Conditions
12:03 AM 6.8 °F - 1.4 °F 79% 30.20 in 10.0 mi Calm Calm - N/A   Mostly Cloudy
12:53 AM 8.1 °F - 3.0 °F 80% 30.28 in 10.0 mi Calm Calm - N/A   Overcast
1:46 AM 5.0 °F -2.1 °F 1.4 °F 85% 30.23 in 10.0 mi NNW 3.5 mph - N/A   Scattered Clouds
1:53 AM 5.0 °F -2.1 °F 1.9 °F 87% 30.30 in 10.0 mi North 3.5 mph - N/A   Partly Cloudy
2:53 AM 3.9 °F -3.4 °F 1.0 °F 88% 30.32 in 10.0 mi ENE 3.5 mph - N/A   Clear
3:53 AM 3.0 °F - -0.0 °F 87% 30.31 in 10.0 mi Calm Calm - N/A   Clear
4:53 AM 3.0 °F - -0.9 °F 84% 30.31 in 10.0 mi Calm Calm - N/A   Clear
5:53 AM 3.0 °F -4.4 °F -2.0 °F 80% 30.30 in 10.0 mi NNE 3.5 mph - N/A   Clear
6:53 AM 1.0 °F -8.7 °F -2.0 °F 87% 30.31 in 10.0 mi NNE 4.6 mph - N/A   Clear
7:53 AM 3.0 °F -6.4 °F -2.0 °F 80% 30.31 in 10.0 mi NNE 4.6 mph - N/A   Overcast
8:53 AM 6.1 °F -4.3 °F -2.0 °F 69% 30.28 in 10.0 mi NE 5.8 mph - N/A   Clear
9:53 AM 9.0 °F 2.4 °F -0.9 °F 64% 30.28 in 10.0 mi Variable 3.5 mph - N/A   Clear
10:53 AM 12.0 °F 1.5 °F -2.9 °F 51% 30.27 in 10.0 mi East 6.9 mph - N/A   Overcast
11:53 AM 15.1 °F 5.2 °F -2.9 °F 45% 30.23 in 10.0 mi ENE 6.9 mph - N/A   Clear
12:53 PM 17.1 °F 10.0 °F -2.9 °F 41% 30.19 in 10.0 mi NE 4.6 mph - N/A   Overcast
1:53 PM 17.1 °F 6.6 °F -2.9 °F 41% 30.17 in 10.0 mi ENE 8.1 mph - N/A   Partly Cloudy
2:53 PM 18.0 °F 6.9 °F -2.0 °F 41% 30.14 in 10.0 mi ENE 9.2 mph - N/A   Overcast
3:53 PM 18.0 °F 7.7 °F 1.0 °F 48% 30.11 in 10.0 mi ENE 8.1 mph - N/A   Overcast
4:53 PM 18.0 °F 6.9 °F 3.0 °F 52% 30.07 in 10.0 mi ENE 9.2 mph - N/A   Overcast
5:23 PM 17.6 °F 8.2 °F 5.0 °F 58% 29.98 in 4.0 mi East 6.9 mph - 0.00 in Snow Light Snow
5:53 PM 16.0 °F 1.7 °F 9.0 °F 74% 30.06 in 1.5 mi East 13.8 mph 18.4 mph 0.00 in Snow Light Snow
6:12 PM 15.8 °F 2.7 °F 10.4 °F 79% 29.98 in 2.5 mi ENE 11.5 mph 19.6 mph 0.00 in Snow Light Snow
6:31 PM 15.8 °F 3.4 °F 10.4 °F 79% 29.97 in 1.5 mi East 10.4 mph - 0.00 in Snow Light Snow
6:53 PM 16.0 °F 5.3 °F 10.9 °F 81% 30.04 in 1.8 mi East 8.1 mph - 0.01 in Snow Light Snow
7:08 PM 15.8 °F 6.1 °F 10.4 °F 79% 29.96 in 1.0 mi ENE 6.9 mph - 0.00 in Snow Light Snow
7:13 PM 15.8 °F 5.1 °F 12.2 °F 86% 29.96 in 0.5 mi East 8.1 mph - 0.01 in Fog , Snow Snow
7:34 PM 15.8 °F 3.4 °F 12.2 °F 86% 29.95 in 1.5 mi ESE 10.4 mph - 0.02 in Snow Light Snow
7:36 PM 15.8 °F 2.7 °F 12.2 °F 86% 29.95 in 2.0 mi ESE 11.5 mph - 0.02 in Snow Light Snow
7:46 PM 15.8 °F 5.1 °F 12.2 °F 86% 29.96 in 4.0 mi ESE 8.1 mph - 0.02 in Snow Light Snow
7:53 PM 16.0 °F 3.6 °F 10.9 °F 81% 30.04 in 5.0 mi ESE 10.4 mph - 0.02 in Snow Light Snow
8:00 PM 17.6 °F 5.7 °F 10.4 °F 73% 29.96 in 6.0 mi East 10.4 mph - 0.00 in Snow Light Snow
8:10 PM 17.6 °F 6.4 °F 10.4 °F 73% 29.95 in 2.5 mi East 9.2 mph - 0.00 in Snow Light Snow
8:25 PM 17.6 °F 7.3 °F 12.2 °F 79% 29.95 in 4.0 mi East 8.1 mph - 0.00 in Snow Light Snow
8:53 PM 17.1 °F 5.0 °F 12.0 °F 81% 30.01 in 2.5 mi East 10.4 mph 19.6 mph 0.00 in Snow Light Snow
9:10 PM 17.6 °F 10.7 °F 12.2 °F 79% 29.94 in 6.0 mi Variable 4.6 mph - 0.00 in Snow Light Snow
9:53 PM 18.0 °F 9.8 °F 12.0 °F 78% 30.01 in 2.5 mi Variable 5.8 mph - 0.01 in Snow Light Snow
10:01 PM 17.6 °F 9.3 °F 12.2 °F 79% 29.93 in 3.0 mi Variable 5.8 mph - 0.00 in Snow Light Snow
10:05 PM 17.6 °F 5.7 °F 12.2 °F 79% 29.93 in 1.8 mi East 10.4 mph - 0.00 in Snow Light Snow
10:09 PM 17.6 °F 7.3 °F 12.2 °F 79% 29.93 in 0.8 mi ESE 8.1 mph - 0.00 in Snow Light Snow
10:16 PM 17.6 °F 5.7 °F 14.0 °F 86% 29.93 in 0.5 mi ESE 10.4 mph - 0.01 in Fog , Snow Light Snow
10:23 PM 17.6 °F 8.2 °F 14.0 °F 86% 29.93 in 0.5 mi ESE 6.9 mph 16.1 mph 0.01 in Fog , Snow Snow
10:34 PM 17.6 °F 8.2 °F 14.0 °F 86% 29.93 in 1.0 mi ESE 6.9 mph - 0.02 in Snow Light Snow
10:42 PM 17.6 °F 3.7 °F 14.0 °F 86% 29.94 in 3.0 mi ESE 13.8 mph 19.6 mph 0.02 in Snow Light Snow
10:53 PM 18.0 °F 6.9 °F 12.9 °F 81% 30.00 in 7.0 mi ESE 9.2 mph - 0.02 in   Overcast
11:00 PM 17.6 °F 4.3 °F 12.2 °F 79% 29.93 in 8.0 mi ESE 12.7 mph - 0.00 in   Overcast
11:07 PM 17.6 °F 5.7 °F 12.2 °F 79% 29.93 in 6.0 mi ESE 10.4 mph - 0.00 in Snow Light Snow
11:53 PM 17.1 °F 5.0 °F 12.0 °F 81% 29.99 in 10.0 mi ESE 10.4 mph - 0.01 in   Overcast